TimeEST,TemperatureF,Dew PointF,Humidity,Sea Level PressureIn,VisibilityMPH,Wind Direction,Wind SpeedMPH,Gust SpeedMPH,PrecipitationIn,Events,Conditions,WindDirDegrees,DateUTC
12:53 AM,28.0,12.9,53,30.53,10.0,East,8.1,-,N/A,,Overcast,90,2000-12-14 05:53:00
1:44 AM,28.4,19.4,69,30.47,7.0,ENE,6.9,-,0.00,Rain,Light Freezing Rain,70,2000-12-14 06:44:00
1:53 AM,28.0,19.9,72,30.48,5.0,ENE,6.9,-,0.00,Rain,Light Freezing Rain,60,2000-12-14 06:53:00
2:00 AM,28.4,21.2,74,30.47,6.0,NE,6.9,-,0.00,Rain,Light Freezing Rain,50,2000-12-14 07:00:00
2:53 AM,27.0,21.9,81,30.43,6.0,ENE,6.9,-,0.00,Rain,Light Freezing Rain,60,2000-12-14 07:53:00
3:08 AM,26.6,24.8,93,30.41,4.0,ENE,6.9,-,0.00,Rain,Light Freezing Rain,70,2000-12-14 08:08:00
3:15 AM,26.6,24.8,93,30.40,4.0,ENE,5.8,-,0.00,Rain,Light Freezing Rain,60,2000-12-14 08:15:00
3:39 AM,26.6,24.8,93,30.37,4.0,ENE,5.8,-,N/A,Rain,Light Freezing Rain,70,2000-12-14 08:39:00
3:53 AM,28.0,25.0,88,30.37,4.0,ENE,6.9,-,N/A,Rain,Light Freezing Rain,60,2000-12-14 08:53:00
4:07 AM,28.4,26.6,93,30.34,6.0,NE,6.9,-,N/A,Rain,Light Freezing Rain,50,2000-12-14 09:07:00
4:14 AM,28.4,28.4,100,30.32,5.0,ENE,10.4,-,N/A,Rain,Light Freezing Rain,70,2000-12-14 09:14:00
4:25 AM,28.4,28.4,100,30.30,6.0,ENE,10.4,-,N/A,Rain,Light Freezing Rain,60,2000-12-14 09:25:00
4:42 AM,30.2,28.4,93,30.28,8.0,ENE,9.2,-,N/A,Rain,Light Freezing Rain,70,2000-12-14 09:42:00
4:53 AM,30.9,28.9,92,30.27,8.0,ENE,10.4,-,N/A,Rain,Light Freezing Rain,70,2000-12-14 09:53:00
5:37 AM,32.0,30.2,93,30.24,5.0,ENE,8.1,-,N/A,Rain,Light Rain,60,2000-12-14 10:37:00
5:45 AM,32.0,30.2,93,30.25,4.0,NE,6.9,-,N/A,Rain,Light Freezing Rain,40,2000-12-14 10:45:00
5:53 AM,30.9,30.0,96,30.27,3.0,NNE,5.8,-,N/A,Rain,Light Freezing Rain,30,2000-12-14 10:53:00
5:57 AM,30.2,30.2,100,30.25,2.5,NNE,6.9,-,0.00,Rain,Light Freezing Rain,30,2000-12-14 10:57:00
6:21 AM,30.2,28.4,93,30.23,2.5,ENE,6.9,-,0.06,Rain,Light Freezing Rain,60,2000-12-14 11:21:00
6:36 AM,30.2,30.2,100,30.23,3.0,ENE,4.6,-,0.08,Rain,Light Freezing Rain,60,2000-12-14 11:36:00
6:44 AM,30.2,30.2,100,30.22,2.5,ENE,8.1,-,0.10,Rain,Light Freezing Rain,70,2000-12-14 11:44:00
6:53 AM,30.9,30.0,96,30.24,2.5,NNE,8.1,-,0.14,Rain,Light Freezing Rain,20,2000-12-14 11:53:00
7:01 AM,30.2,30.2,100,30.23,3.0,NE,6.9,-,0.02,Rain,Light Freezing Rain,50,2000-12-14 12:01:00
7:53 AM,32.0,30.9,96,30.21,3.0,Calm,Calm,-,0.18,Rain,Light Freezing Rain,0,2000-12-14 12:53:00
8:04 AM,32.0,30.2,93,30.17,3.0,Calm,Calm,-,0.02,Rain,Rain,0,2000-12-14 13:04:00
8:08 AM,32.0,30.2,93,30.16,3.0,Calm,Calm,-,0.02,Rain,Light Freezing Rain,0,2000-12-14 13:08:00
8:32 AM,32.0,30.2,93,30.12,7.0,Calm,Calm,-,0.04,Rain,Light Freezing Rain,0,2000-12-14 13:32:00
8:35 AM,32.0,30.2,93,30.12,9.0,Calm,Calm,-,0.04,Rain,Light Rain,0,2000-12-14 13:35:00
8:45 AM,32.0,30.2,93,30.12,10.0,Calm,Calm,-,0.04,Rain,Light Freezing Rain,0,2000-12-14 13:45:00
8:53 AM,32.0,30.9,96,30.14,8.0,Calm,Calm,-,0.04,Rain,Light Freezing Rain,0,2000-12-14 13:53:00
9:06 AM,33.8,30.2,87,30.12,6.0,Calm,Calm,-,0.00,Rain,Light Freezing Rain,0,2000-12-14 14:06:00
9:13 AM,33.8,30.2,87,30.10,4.0,Calm,Calm,-,0.00,,Overcast,0,2000-12-14 14:13:00
9:53 AM,33.1,30.9,92,30.12,7.0,Calm,Calm,-,0.02,,Overcast,0,2000-12-14 14:53:00
10:53 AM,33.1,30.9,92,30.08,10.0,Calm,Calm,-,0.02,,Overcast,0,2000-12-14 15:53:00
11:53 AM,33.1,30.9,92,30.05,4.0,Calm,Calm,-,0.04,,Overcast,0,2000-12-14 16:53:00
12:53 PM,34.0,32.0,92,30.05,6.0,Calm,Calm,-,0.06,,Overcast,0,2000-12-14 17:53:00
1:53 PM,35.1,30.9,85,30.04,6.0,WSW,3.5,-,0.06,,Overcast,240,2000-12-14 18:53:00
2:53 PM,36.0,32.0,86,30.08,3.0,West,4.6,-,0.04,,Overcast,260,2000-12-14 19:53:00
3:36 PM,35.6,30.2,81,30.06,4.0,WSW,4.6,-,0.02,,Scattered Clouds,250,2000-12-14 20:36:00
3:53 PM,36.0,30.0,79,30.08,6.0,WSW,5.8,-,0.02,,Haze,250,2000-12-14 20:53:00
4:53 PM,37.9,30.9,76,30.09,10.0,WSW,8.1,-,0.02,,Mostly Cloudy,240,2000-12-14 21:53:00
5:53 PM,39.0,30.0,70,30.10,10.0,WSW,11.5,-,0.01,,Scattered Clouds,240,2000-12-14 22:53:00
6:53 PM,39.0,30.9,73,30.13,10.0,West,6.9,-,0.01,,Overcast,260,2000-12-14 23:53:00
7:53 PM,39.0,30.9,73,30.17,10.0,West,10.4,-,N/A,,Overcast,270,2000-12-15 00:53:00
8:53 PM,37.9,30.0,73,30.20,10.0,West,10.4,-,N/A,,Scattered Clouds,270,2000-12-15 01:53:00
9:53 PM,37.0,28.0,70,30.24,10.0,NW,9.2,-,N/A,,Overcast,320,2000-12-15 02:53:00
10:53 PM,36.0,30.0,79,30.27,10.0,North,6.9,-,N/A,,Overcast,360,2000-12-15 03:53:00
11:53 PM,34.0,28.9,82,30.31,10.0,NW,6.9,-,N/A,,Overcast,320,2000-12-15 04:53:00